When you browse on this site, cookies collect data to enhance your experience and personalize the content and advertising you see.
Visit our Privacy Policy to learn more. By continuing to use the site, you agree to this use of cookies and data.
EN

Hourly Weather Czalczyn

Today, 4 July, Saturday

Time Temperature Precipitation Wind Pressure Humidity
00:00 +16°C° 0 mm 2 mps 741 mmHg 90%
01:00 +15°C° 0 mm 2 mps 741 mmHg 89%
02:00 +15°C° 0 mm 2 mps 741 mmHg 90%
03:00 +15°C° 0 mm 2 mps 741 mmHg 90%
04:00 +14°C° 0 mm 1 mps 741 mmHg 91%
05:00 +16°C° 0 mm 1 mps 742 mmHg 85%
06:00 +19°C° 0 mm 1 mps 742 mmHg 79%
07:00 +20°C° 0 mm 1 mps 742 mmHg 72%
08:00 +21°C° 0 mm 1 mps 742 mmHg 64%
09:00 +21°C° 0 mm 2 mps 742 mmHg 57%
10:00 +24°C° 0 mm 2 mps 742 mmHg 49%
11:00 +24°C° 0 mm 2 mps 742 mmHg 48%
12:00 +25°C° 0 mm 2 mps 742 mmHg 47%
13:00 +25°C° 0 mm 2 mps 742 mmHg 46%
14:00 +25°C° 0 mm 2 mps 741 mmHg 46%
15:00 +25°C° 0 mm 2 mps 741 mmHg 47%
16:00 +25°C° 0 mm 2 mps 741 mmHg 48%
17:00 +24°C° 0 mm 2 mps 741 mmHg 54%
18:00 +23°C° 0 mm 1 mps 741 mmHg 60%
19:00 +22°C° 0 mm 1 mps 741 mmHg 66%
20:00 +21°C° 0 mm 1 mps 741 mmHg 68%
21:00 +20°C° 0 mm 1 mps 741 mmHg 69%
22:00 +19°C° 0 mm 1 mps 741 mmHg 71%
23:00 +18°C° 0 mm 1 mps 741 mmHg 73%

Tomorrow, 5 July, Sunday

Time Temperature Precipitation Wind Pressure Humidity
00:00 +17°C° 0 mm 2 mps 741 mmHg 74%
01:00 +17°C° 0 mm 2 mps 741 mmHg 76%
02:00 +16°C° 0 mm 2 mps 740 mmHg 78%
03:00 +16°C° 0 mm 2 mps 740 mmHg 80%
04:00 +16°C° 0 mm 2 mps 740 mmHg 82%
05:00 +18°C° 0 mm 2 mps 740 mmHg 78%
06:00 +19°C° 0 mm 3 mps 740 mmHg 75%
07:00 +21°C° 0 mm 3 mps 740 mmHg 71%
08:00 +22°C° 0 mm 3 mps 740 mmHg 67%
09:00 +25°C° 0 mm 3 mps 740 mmHg 62%
10:00 +26°C° 0 mm 4 mps 740 mmHg 58%
11:00 +27°C° 0 mm 4 mps 740 mmHg 56%
12:00 +27°C° 0 mm 4 mps 739 mmHg 54%
13:00 +28°C° 0 mm 4 mps 739 mmHg 52%
14:00 +28°C° 0 mm 4 mps 739 mmHg 53%
15:00 +28°C° 0 mm 4 mps 739 mmHg 54%
16:00 +28°C° 0 mm 4 mps 739 mmHg 54%
17:00 +27°C° 0.1 mm 3 mps 738 mmHg 62%
18:00 +26°C° 0.1 mm 3 mps 738 mmHg 70%
19:00 +24°C° 0.1 mm 2 mps 738 mmHg 78%
20:00 +23°C° 0 mm 2 mps 738 mmHg 81%
21:00 +21°C° 0 mm 2 mps 738 mmHg 84%
22:00 +20°C° 0 mm 2 mps 738 mmHg 87%
23:00 +20°C° 0 mm 2 mps 738 mmHg 88%

Day after tomorrow, 6 July, Monday

Time Temperature Precipitation Wind Pressure Humidity
00:00 +19°C° 0 mm 2 mps 738 mmHg 89%
01:00 +19°C° 0 mm 2 mps 738 mmHg 91%
02:00 +18°C° 0 mm 2 mps 737 mmHg 90%
03:00 +18°C° 0 mm 2 mps 737 mmHg 90%
04:00 +18°C° 0 mm 2 mps 737 mmHg 90%
05:00 +19°C° 0 mm 2 mps 737 mmHg 88%
06:00 +20°C° 0 mm 3 mps 737 mmHg 85%
07:00 +21°C° 0 mm 3 mps 737 mmHg 83%
08:00 +22°C° 0.2 mm 3 mps 737 mmHg 77%
09:00 +24°C° 0.2 mm 3 mps 737 mmHg 72%
10:00 +26°C° 0.2 mm 4 mps 737 mmHg 67%
11:00 +26°C° 0.2 mm 4 mps 736 mmHg 66%
12:00 +26°C° 0.2 mm 4 mps 736 mmHg 65%
13:00 +26°C° 0.2 mm 4 mps 736 mmHg 65%
14:00 +25°C° 0.2 mm 4 mps 736 mmHg 67%
15:00 +23°C° 0.2 mm 4 mps 736 mmHg 69%
16:00 +22°C° 0.2 mm 4 mps 735 mmHg 71%
17:00 +21°C° 0 mm 4 mps 736 mmHg 73%
18:00 +21°C° 0 mm 3 mps 736 mmHg 74%
19:00 +20°C° 0 mm 2 mps 736 mmHg 75%
20:00 +19°C° 0 mm 2 mps 736 mmHg 73%
21:00 +18°C° 0 mm 3 mps 737 mmHg 71%
22:00 +17°C° 0 mm 3 mps 737 mmHg 70%
23:00 +17°C° 0 mm 3 mps 738 mmHg 70%

7 July, Tuesday

Time Temperature Precipitation Wind Pressure Humidity
00:00 +16°C° 0 mm 3 mps 738 mmHg 69%
01:00 +16°C° 0 mm 3 mps 738 mmHg 69%
02:00 +14°C° 0.1 mm 3 mps 738 mmHg 72%
03:00 +14°C° 0.1 mm 3 mps 738 mmHg 74%
04:00 +14°C° 0.1 mm 3 mps 739 mmHg 77%
05:00 +14°C° 0 mm 3 mps 739 mmHg 76%
06:00 +14°C° 0 mm 3 mps 739 mmHg 76%
07:00 +14°C° 0 mm 4 mps 740 mmHg 75%
08:00 +15°C° 0.2 mm 4 mps 740 mmHg 73%
09:00 +17°C° 0.2 mm 4 mps 740 mmHg 70%
10:00 +17°C° 0.2 mm 5 mps 740 mmHg 67%
11:00 +17°C° 0.2 mm 5 mps 739 mmHg 64%
12:00 +19°C° 0.2 mm 5 mps 739 mmHg 61%
13:00 +20°C° 0.2 mm 6 mps 739 mmHg 58%
14:00 +19°C° 0.2 mm 6 mps 739 mmHg 60%
15:00 +19°C° 0.2 mm 6 mps 739 mmHg 62%
16:00 +17°C° 0.2 mm 6 mps 739 mmHg 63%
17:00 +16°C° 0 mm 5 mps 739 mmHg 66%
18:00 +15°C° 0 mm 4 mps 740 mmHg 68%
19:00 +14°C° 0 mm 4 mps 740 mmHg 71%
20:00 +13°C° 0 mm 3 mps 740 mmHg 73%
21:00 +12°C° 0 mm 3 mps 741 mmHg 76%
22:00 +12°C° 0 mm 2 mps 741 mmHg 78%
23:00 +10°C° 0 mm 2 mps 741 mmHg 79%

8 July, Wednesday

Time Temperature Precipitation Wind Pressure Humidity
00:00 +10°C° 0 mm 2 mps 741 mmHg 80%
01:00 +10°C° 0 mm 2 mps 741 mmHg 82%
02:00 +9°C° 0 mm 2 mps 741 mmHg 82%
03:00 +9°C° 0 mm 2 mps 741 mmHg 82%
04:00 +9°C° 0 mm 3 mps 741 mmHg 82%
05:00 +11°C° 0 mm 3 mps 741 mmHg 78%
06:00 +12°C° 0 mm 3 mps 741 mmHg 75%
07:00 +14°C° 0 mm 4 mps 741 mmHg 71%
08:00 +15°C° 0.1 mm 4 mps 742 mmHg 66%
09:00 +16°C° 0.1 mm 5 mps 742 mmHg 62%
10:00 +19°C° 0.1 mm 5 mps 742 mmHg 57%
11:00 +19°C° 0.1 mm 5 mps 741 mmHg 56%
12:00 +19°C° 0.1 mm 5 mps 741 mmHg 55%
13:00 +20°C° 0.1 mm 5 mps 741 mmHg 54%
14:00 +20°C° 0.1 mm 5 mps 741 mmHg 55%
15:00 +20°C° 0.1 mm 5 mps 741 mmHg 55%
16:00 +20°C° 0.1 mm 5 mps 741 mmHg 56%
17:00 +19°C° 0.1 mm 4 mps 741 mmHg 62%
18:00 +18°C° 0.1 mm 3 mps 741 mmHg 67%
19:00 +17°C° 0.1 mm 2 mps 741 mmHg 73%
20:00 +16°C° 0 mm 2 mps 741 mmHg 75%
21:00 +15°C° 0 mm 2 mps 741 mmHg 78%
22:00 +14°C° 0 mm 2 mps 741 mmHg 80%
23:00 +14°C° 0 mm 2 mps 741 mmHg 79%

9 July, Thursday

Time Temperature Precipitation Wind Pressure Humidity
00:00 +14°C° 0 mm 2 mps 741 mmHg 79%
01:00 +13°C° 0 mm 2 mps 741 mmHg 78%
02:00 +12°C° 0 mm 3 mps 741 mmHg 79%
03:00 +12°C° 0 mm 3 mps 740 mmHg 80%
04:00 +12°C° 0 mm 3 mps 740 mmHg 81%
05:00 +14°C° 0 mm 3 mps 740 mmHg 77%
06:00 +17°C° 0 mm 3 mps 740 mmHg 73%
07:00 +18°C° 0 mm 4 mps 740 mmHg 69%
08:00 +20°C° 0 mm 4 mps 740 mmHg 64%
09:00 +22°C° 0 mm 4 mps 740 mmHg 59%
10:00 +25°C° 0 mm 4 mps 740 mmHg 54%
11:00 +25°C° 0 mm 4 mps 740 mmHg 52%
12:00 +26°C° 0 mm 5 mps 740 mmHg 51%
13:00 +27°C° 0 mm 5 mps 740 mmHg 49%
14:00 +27°C° 0 mm 5 mps 740 mmHg 50%
15:00 +27°C° 0 mm 4 mps 740 mmHg 50%
16:00 +27°C° 0 mm 4 mps 739 mmHg 50%
17:00 +26°C° 0 mm 4 mps 739 mmHg 57%
18:00 +24°C° 0 mm 3 mps 739 mmHg 63%
19:00 +23°C° 0 mm 2 mps 739 mmHg 70%
20:00 +21°C° 0 mm 2 mps 739 mmHg 72%
21:00 +20°C° 0 mm 2 mps 739 mmHg 75%
22:00 +18°C° 0 mm 2 mps 740 mmHg 77%
23:00 +18°C° 0 mm 2 mps 739 mmHg 79%
Show more